Location: Ciechanow
(52.8812°N, 20.6195°E)
Time: 14:27:20
(UTC+01:00)

ISS - Pass Details

Date: 30 January 2019
Orbit: 403 x 411 km, 51.6° (Epoch: 23 February)

Event Time Altitude Azimuth Distance (km) Brightness Sun altitude
Rises 17:23:56 0° 248° (WSW) 2,330 2.3 -10.0°
Reaches altitude 10° 17:26:01 10° 244° (WSW) 1,473 0.5 -10.3°
Maximum altitude 17:29:16 56° 166° (SSE) 495 -3.4 -10.8°
Enters shadow 17:31:37 17° 91° (E) 1,125 -2.2 -11.1°
